Location: Bear Trap Landing
(45.2437°N, 67.7928°W)
Time: 00:55:31
(UTC+00:00)

X-37B - Pass Details

Date: 13 March 2021
Orbit: 380 x 394 km, 45.0° (Epoch: 07 April)

Event Time Altitude Azimuth Distance (km) Brightness Sun altitude
Rises 00:28:19 0° 244° (WSW) 2,267 5.2 -20.7°
Reaches altitude 10° 00:30:25 10° 239° (WSW) 1,417 3.9 -21.1°
Enters shadow 00:32:20 31° 221° (SW) 712 2.0 -21.4°
